Theta_e
359 360 363 361 361 362 360 363 361 362 361 362 363 365 364 364 366 362 362 363 363 358 357 360 363 361 355 355 353 355 353 355 357 356 357 358 359 360 361 360 359 359 359 359 359 359 359 359 358 358 358 358 358 358 358 358 357 357 356 356 355 355 355 355 355 354 354 354 355 355 354 354 354 354 354 355 354 354 353 353 354 354 354 353 354
360 361 364 363 360 358 361 361 361 362 362 363 362 365 363 367 362 362 355 359 361 357 359 355 352 362 361 352 353 352 358 354 355 355 357 358 358 360 363 362 361 360 359 359 359 359 359 359 359 359 358 358 358 357 358 358 357 357 356 356 356 355 355 355 354 354 354 354 354 354 354 354 354 354 354 354 354 354 353 353 353 354 354 353 351
362 361 358 362 359 358 359 364 363 363 363 362 365 366 366 366 363 363 366 364 362 363 361 360 359 364 364 353 353 359 355 355 355 355 355 357 358 360 361 363 362 361 361 360 360 359 360 359 359 358 358 358 358 357 357 358 357 357 356 356 356 355 355 354 354 354 354 354 354 354 354 354 354 354 354 354 354 353 354 354 354 354 353 350 347
368 360 360 364 362 362 364 366 363 364 363 364 366 364 368 362 366 363 361 361 364 361 360 364 359 353 358 353 353 354 356 355 351 352 354 357 358 359 360 360 362 362 361 361 361 360 360 360 359 359 358 358 358 357 357 357 357 357 355 356 355 355 355 354 354 355 355 355 354 354 355 354 354 354 354 353 353 353 353 353 353 352 349 347 345
363 368 364 364 362 363 364 365 365 360 365 361 363 368 367 366 365 362 364 363 360 360 360 364 360 355 352 352 358 353 355 357 359 352 353 356 359 359 359 360 360 362 362 361 360 360 360 360 360 359 359 358 358 357 357 356 356 356 356 355 355 355 356 355 355 356 355 355 355 355 354 353 354 354 354 353 353 353 353 353 353 349 347 344 346
366 369 364 362 362 363 365 366 367 364 363 368 368 365 362 365 364 365 363 361 360 358 362 355 355 355 357 351 358 359 359 352 354 352 354 354 357 359 360 360 360 360 361 361 361 361 360 360 360 359 359 359 358 357 357 356 356 356 356 356 356 356 357 356 356 355 356 355 354 354 355 354 354 354 353 353 353 353 353 352 352 347 344 346 346
369 370 367 365 362 364 363 364 368 369 369 370 367 367 366 364 365 364 364 365 361 360 360 358 355 358 357 358 352 353 353 354 354 355 352 355 357 356 360 360 360 360 361 361 362 362 361 361 361 360 360 359 359 359 359 358 357 358 358 357 357 358 357 356 356 356 355 355 354 354 355 355 354 354 353 353 353 353 352 352 348 345 347 346 345
372 373 365 367 362 362 365 369 368 368 366 371 371 366 366 366 364 363 364 361 362 361 359 357 356 350 354 362 356 363 362 355 353 353 351 362 355 357 358 360 360 361 362 360 361 361 361 362 362 361 361 360 360 360 359 359 359 359 359 359 358 359 357 356 356 356 356 355 355 354 354 354 353 354 354 353 353 353 352 351 347 345 343 345 346
373 374 374 363 361 364 364 365 367 368 366 370 368 366 367 359 365 366 364 363 359 355 356 358 357 351 352 357 355 363 356 361 361 356 354 356 359 353 357 358 362 365 362 361 360 361 362 362 362 362 362 361 361 361 361 359 360 358 359 359 359 359 358 357 357 356 356 356 355 355 354 354 354 354 354 353 353 352 351 348 344 343 346 346 346
374 374 374 365 364 367 366 368 368 371 368 368 367 365 364 365 364 369 367 363 359 356 356 351 350 352 351 348 358 362 357 365 359 360 365 357 357 357 357 355 359 360 358 359 360 362 360 361 362 362 362 362 361 361 360 360 360 358 359 359 359 358 358 357 357 357 357 356 356 356 355 354 354 354 353 353 353 352 351 347 344 346 346 346 345
374 373 372 369 365 367 367 368 368 369 368 362 362 363 362 363 363 365 367 364 362 358 358 362 362 349 347 348 352 363 367 361 364 358 353 352 354 353 351 358 358 358 359 361 360 362 360 360 361 360 360 362 362 362 361 360 360 360 359 359 359 359 359 358 357 357 357 357 356 356 355 355 355 354 353 353 353 352 350 348 344 345 345 344 345
373 372 374 371 366 369 369 367 372 369 365 361 360 363 363 363 363 359 364 363 364 361 356 359 354 361 354 361 355 360 360 361 357 357 358 354 355 357 349 351 355 356 356 359 359 359 361 360 362 360 360 361 362 363 363 362 361 361 361 360 359 359 359 359 358 357 357 357 356 356 355 356 355 354 353 352 352 350 349 347 345 346 346 344 344
373 375 371 372 367 371 365 371 370 369 365 362 362 365 368 367 366 367 360 364 360 359 357 359 364 363 357 358 358 356 359 360 354 350 354 354 355 357 352 353 351 354 356 355 356 357 361 362 361 361 361 363 361 363 363 362 361 361 361 360 360 359 359 359 358 358 357 357 357 356 356 356 356 355 353 352 351 350 349 347 344 345 344 344 343
375 375 376 374 369 368 373 370 370 368 368 369 368 368 367 366 365 365 366 361 361 354 357 356 356 349 348 349 351 353 359 349 346 345 347 349 352 362 363 348 348 349 349 354 359 352 353 357 359 360 363 362 359 359 361 361 362 362 362 362 361 360 359 359 358 358 358 357 357 356 356 356 356 354 353 351 350 350 348 345 346 347 346 344 342
371 374 372 371 373 371 371 373 365 368 371 369 368 365 369 364 365 363 362 363 361 363 363 359 353 351 354 356 343 342 353 354 346 346 342 346 347 347 347 345 347 356 357 349 349 355 350 353 354 359 362 363 362 362 361 362 361 363 362 362 361 361 360 359 358 358 358 357 357 357 357 357 357 355 354 352 351 351 350 346 345 346 346 345 342
367 367 369 370 369 368 370 370 371 372 371 372 370 364 365 365 363 363 363 355 353 357 360 363 358 357 346 344 342 340 340 349 347 344 343 342 343 343 346 345 348 348 358 353 346 351 346 349 353 356 356 359 363 362 362 362 363 366 365 363 361 361 360 361 360 359 357 357 357 357 357 358 357 354 354 351 351 351 350 347 344 346 347 346 345
366 367 367 370 369 369 369 370 370 371 371 370 367 361 362 364 364 365 360 359 355 354 360 356 359 366 357 350 346 344 340 339 336 347 345 343 340 342 348 344 345 349 349 351 348 350 347 348 351 356 359 356 357 360 363 362 362 367 364 364 362 361 360 360 360 359 358 357 357 356 357 359 358 356 353 352 352 352 351 351 346 344 347 347 345
367 367 366 367 370 371 371 369 373 374 373 368 366 367 366 365 364 363 361 363 362 358 356 366 360 365 363 363 353 346 347 345 341 343 370 340 344 343 344 342 346 346 350 351 346 349 356 350 355 355 355 358 358 355 359 362 365 363 363 361 363 362 360 359 359 360 359 357 357 356 357 359 358 357 354 353 353 352 352 352 349 345 347 346 346
361 367 366 369 370 371 371 371 369 369 373 373 372 362 360 363 365 366 363 372 369 361 357 354 366 363 355 349 352 350 350 349 344 351 346 355 351 346 340 342 343 345 346 345 341 346 346 350 352 351 355 355 356 357 361 358 363 363 365 365 364 362 360 359 360 360 359 358 357 357 356 360 359 357 356 353 353 353 353 353 350 347 346 345 345
364 369 368 369 370 370 373 371 373 365 369 370 366 364 363 366 368 371 370 371 372 367 358 359 362 359 358 353 352 352 351 345 341 345 345 348 345 341 342 338 345 339 342 342 343 344 345 352 350 353 354 356 358 357 357 356 358 362 364 363 364 363 361 360 360 359 359 359 358 358 358 358 359 358 356 355 354 353 353 353 352 349 347 345 345
369 366 367 369 369 371 372 372 370 371 369 367 364 360 361 367 374 370 369 371 367 372 370 368 360 355 361 359 356 359 350 346 349 347 349 347 344 342 345 343 345 344 340 348 346 346 349 349 354 349 353 356 357 357 357 359 361 358 363 362 364 363 361 360 360 360 359 358 359 358 358 358 358 357 357 356 355 355 353 352 353 352 349 347 346
365 370 369 369 369 370 368 367 368 362 364 364 363 365 364 368 369 369 370 370 377 368 366 368 367 362 357 360 365 358 356 354 346 342 344 350 343 341 342 343 342 355 342 344 346 344 345 352 354 352 350 355 356 358 357 358 362 360 359 361 362 363 361 360 358 359 359 358 358 358 358 359 359 359 358 357 356 356 355 352 351 352 351 349 347
360 366 367 365 368 369 364 365 366 367 370 368 368 360 359 362 363 369 370 370 370 370 367 365 368 366 363 363 360 355 351 354 349 352 349 347 347 337 337 337 342 346 358 348 367 353 354 354 349 340 367 353 357 358 358 358 360 356 360 358 359 360 360 359 358 359 356 357 358 357 358 358 359 359 358 358 358 357 356 355 352 351 351 350 348
363 363 361 360 367 368 368 367 369 369 368 368 367 366 361 361 364 369 370 370 371 376 369 368 361 370 361 359 359 353 352 351 351 362 359 353 348 344 343 347 347 349 352 359 349 351 348 346 344 346 353 353 357 361 361 360 359 361 360 358 356 357 358 359 359 356 355 354 353 356 357 357 358 359 359 359 358 358 358 357 355 352 350 351 350
363 359 359 361 366 368 366 368 369 368 370 370 370 374 376 372 371 362 366 368 369 368 369 366 361 362 360 358 356 351 353 351 351 347 349 367 362 348 344 344 346 349 352 354 352 353 353 352 357 347 350 363 362 365 361 360 362 360 359 358 355 356 356 357 358 355 354 354 354 355 355 356 356 356 356 357 358 358 358 359 358 356 353 350 351
356 359 358 358 361 366 369 368 372 373 373 374 373 374 373 371 368 367 363 369 373 369 371 363 369 363 365 362 358 353 352 351 349 355 346 349 348 343 344 351 343 341 364 352 357 348 346 346 346 366 366 366 363 362 358 352 358 359 359 359 354 352 354 354 356 354 353 353 352 353 353 355 356 356 355 355 357 357 357 358 359 359 358 355 352
357 361 363 366 362 365 368 367 368 373 372 372 370 373 374 373 372 366 371 372 368 369 368 361 360 359 365 364 365 362 358 359 361 345 347 348 347 355 362 357 345 343 343 356 355 345 341 357 348 349 354 360 367 372 362 356 354 362 359 359 358 352 351 351 352 353 351 352 351 351 352 353 355 356 355 355 355 357 358 357 357 357 357 357 355
361 362 359 364 363 364 367 366 370 368 371 372 371 369 372 370 372 371 369 363 369 367 368 363 359 362 361 370 371 360 361 358 353 359 357 360 362 358 368 355 346 340 349 345 347 350 348 346 351 357 356 356 359 361 364 356 356 363 361 357 360 356 350 349 349 349 348 348 349 349 349 351 351 352 353 353 353 354 356 355 354 354 354 355 355
360 360 360 362 367 364 363 362 368 369 369 371 370 371 372 368 367 370 368 364 368 367 369 365 365 357 359 359 366 366 367 367 364 360 372 364 361 367 369 361 363 350 343 341 346 346 350 345 346 355 358 362 361 360 358 355 357 362 360 357 357 361 352 346 346 345 345 346 346 347 348 349 349 349 350 351 350 351 353 353 352 352 352 352 352
357 354 358 361 364 367 365 365 366 366 365 366 369 369 370 368 367 370 368 370 369 370 369 365 365 365 361 363 361 363 367 364 365 358 373 372 371 367 364 365 365 352 350 345 345 350 346 347 344 358 372 356 370 360 362 361 356 361 360 359 358 358 349 345 345 344 344 344 344 343 345 346 347 347 346 346 347 348 349 350 350 350 350 350 350
356 363 360 361 361 364 366 364 367 366 366 366 369 369 369 367 366 366 366 370 369 369 370 368 364 365 366 362 372 370 372 368 370 362 370 366 368 370 368 365 360 356 353 350 343 354 356 347 349 354 359 366 353 355 356 358 358 356 357 358 359 354 350 349 345 344 343 342 341 340 340 341 342 342 342 342 343 344 345 346 347 348 349 348 348
354 358 363 359 361 360 360 359 358 361 363 363 366 368 368 367 365 361 362 367 366 366 364 364 361 364 365 363 367 368 372 373 369 364 371 372 369 366 364 366 365 364 360 354 347 345 356 350 349 350 350 359 358 357 356 361 363 355 355 357 359 354 354 354 350 343 342 340 340 339 338 337 337 338 339 341 342 344 345 345 344 345 346 345 345
356 354 359 360 362 363 360 359 357 358 362 363 363 366 366 367 367 366 365 367 364 365 367 366 362 363 365 365 366 368 370 367 367 364 363 365 366 366 368 370 365 362 359 355 349 348 354 359 356 354 355 358 355 364 364 363 363 364 355 360 362 359 358 357 356 348 342 340 338 338 337 337 336 336 337 339 340 342 344 345 345 343 342 341 341
359 354 356 358 362 363 362 361 360 360 363 366 363 364 365 366 365 363 362 367 366 365 366 366 366 364 367 367 366 366 370 366 363 360 361 358 359 359 362 361 362 363 363 357 354 351 350 358 359 362 358 360 355 363 357 357 356 360 363 362 362 360 358 357 357 358 348 342 338 336 336 336 335 335 336 337 338 339 340 341 341 339 338 338 337
359 357 357 355 360 364 363 364 363 361 364 364 363 362 364 365 364 362 360 361 364 363 363 365 364 365 364 364 362 363 363 363 363 361 359 359 358 359 360 360 360 360 364 364 359 354 353 354 361 356 356 361 360 359 363 363 363 365 361 360 358 360 361 361 361 360 350 345 340 337 336 335 335 335 334 335 336 335 336 336 334 334 333 333 331
355 359 360 357 361 365 364 365 365 361 364 363 362 362 364 365 364 364 364 363 361 361 362 363 363 364 363 363 361 361 362 362 363 362 362 362 362 364 363 366 368 363 362 365 365 359 357 354 358 358 359 357 357 359 360 360 359 359 362 363 365 362 361 362 360 359 354 346 342 338 337 336 335 334 333 333 333 331 331 330 329 330 329 329 329
355 357 361 361 361 363 362 363 365 363 362 363 362 360 362 364 365 364 364 365 364 362 362 363 367 365 364 362 362 362 364 361 362 360 360 362 363 361 361 362 362 364 364 364 364 364 360 357 357 361 364 362 363 363 364 360 361 362 363 362 360 360 361 363 362 362 351 346 345 342 339 337 336 335 333 332 332 331 330 329 328 328 327 327 326
356 356 359 360 361 362 361 361 363 365 365 364 364 362 360 361 363 363 365 365 363 364 364 364 364 365 364 363 362 363 361 360 359 359 362 361 363 362 361 362 364 364 363 363 364 362 360 358 357 357 362 361 360 362 366 367 364 362 363 364 366 366 365 364 363 364 362 361 359 360 349 341 337 332 333 334 333 331 330 329 329 328 326 325 322
354 354 356 359 362 364 363 362 361 364 366 365 365 365 363 362 362 362 362 364 363 363 363 362 363 364 364 363 363 363 361 361 359 359 362 363 362 361 363 363 362 363 363 363 363 362 361 359 360 360 360 363 363 360 366 369 367 364 361 361 361 364 365 365 365 368 364 361 356 350 351 350 347 348 338 332 330 329 329 329 328 327 326 324 322
354 353 355 357 361 363 364 363 363 364 366 365 366 367 365 363 362 362 362 361 361 362 361 362 362 362 364 363 361 361 362 363 362 362 362 362 363 360 362 364 365 364 361 361 361 361 359 359 358 358 360 361 364 365 365 364 362 363 365 362 358 360 363 366 364 363 366 365 362 361 354 351 349 346 337 336 336 334 331 331 332 332 331 328 325
356 354 354 357 358 360 363 364 364 364 364 365 365 366 365 364 362 360 361 361 360 360 361 360 361 362 362 361 361 360 363 368 364 363 362 363 362 362 363 366 366 365 365 364 363 363 362 361 359 361 360 359 360 360 358 359 358 357 364 365 360 359 361 362 366 368 363 360 361 361 360 364 362 361 361 361 362 356 354 346 342 340 335 329 326
360 359 355 359 360 360 361 364 364 363 363 364 359 348 354 363 362 357 360 361 360 359 361 360 360 361 360 359 356 368 365 365 358 355 353 355 360 361 365 369 367 366 365 364 364 363 363 360 359 358 356 356 356 357 359 360 363 366 362 364 361 363 362 360 361 364 367 363 361 361 364 365 362 361 361 360 361 361 360 360 358 352 341 332 329
360 362 358 357 358 360 360 361 362 361 361 360 346 338 341 348 360 359 358 361 363 362 360 361 360 358 358 360 359 363 368 370 362 352 350 348 350 351 354 360 372 374 367 364 363 363 361 359 360 359 356 355 356 358 359 358 360 361 365 363 360 359 357 354 351 359 373 369 362 359 358 362 361 357 358 359 361 361 360 359 346 340 333 331 329
362 362 359 358 358 360 360 361 361 362 363 351 336 335 337 339 350 361 358 358 360 361 360 358 359 359 357 356 356 356 358 361 367 364 354 348 345 346 346 347 348 348 353 363 364 363 363 361 359 358 357 356 358 361 360 359 365 363 364 362 360 358 356 355 355 354 366 366 358 354 353 359 362 360 358 359 360 360 359 344 335 334 332 330 330
364 363 361 359 358 359 360 361 361 362 362 344 332 333 335 335 337 354 359 357 354 357 359 360 358 358 358 357 355 354 350 369 366 367 365 360 345 340 343 345 345 343 337 336 340 354 356 355 354 354 356 358 357 360 365 367 366 360 361 359 359 359 359 356 356 357 359 362 357 354 352 356 360 357 356 359 360 358 353 342 336 332 331 328 327
364 362 362 360 360 360 360 363 362 362 363 343 329 330 331 332 334 343 362 359 356 355 358 361 360 358 360 359 358 356 355 358 365 363 368 366 363 358 355 356 357 356 346 336 334 333 340 349 350 348 353 357 355 360 366 366 360 357 357 355 360 358 357 355 357 357 359 361 356 354 351 355 359 358 354 354 353 350 350 341 332 331 328 326 325
362 363 360 359 360 360 359 361 363 360 361 336 325 326 327 328 332 338 362 360 358 358 359 361 363 361 361 361 361 359 359 359 359 365 366 369 370 368 364 360 359 359 360 360 356 353 351 348 350 351 353 355 356 357 358 360 360 360 361 363 363 360 359 359 357 357 357 360 359 359 351 353 355 350 350 349 347 344 345 336 333 328 329 327 327
360 363 364 361 361 360 360 358 357 359 358 328 324 324 325 326 330 348 360 361 360 359 361 363 363 365 364 363 362 361 360 362 361 350 357 364 367 368 369 369 367 366 364 363 350 351 360 358 355 355 356 357 349 358 360 363 368 371 367 364 363 359 355 352 350 354 353 359 359 348 344 345 352 345 343 344 344 341 343 344 336 332 329 328 328
356 359 361 360 362 361 359 359 357 358 359 332 321 321 322 324 329 355 360 360 360 359 359 364 369 370 368 366 367 364 363 364 356 340 339 357 363 365 366 366 368 369 368 370 347 338 338 336 336 337 337 339 338 336 337 335 348 355 360 355 352 354 352 349 350 350 351 350 350 345 344 341 344 341 339 342 342 339 341 343 345 333 329 326 327
355 358 361 363 363 362 360 359 359 359 359 342 317 319 320 320 335 358 359 360 360 359 360 361 363 365 368 372 373 368 367 367 349 337 334 350 362 363 363 364 365 365 366 367 368 364 334 330 331 332 333 336 338 336 333 331 328 341 354 350 354 356 352 351 347 348 349 351 346 345 343 341 341 341 337 338 339 344 342 343 341 339 334 330 327
360 362 364 363 362 361 360 360 356 359 358 345 314 319 317 317 334 358 361 361 359 360 360 360 362 361 362 365 366 361 364 360 343 335 330 348 363 364 363 362 359 359 362 366 367 365 366 358 355 354 352 349 349 352 353 337 333 342 352 355 357 355 351 350 348 348 344 349 341 348 339 339 336 339 338 334 331 336 343 341 340 340 339 341 340
Wind_Speed
4 4 2 3 3 3 2 2 2 1 1 1 1 1 1 2 2 2 1 1 1 1 1 1 1 2 2 3 5 6 9 6 5 7 7 6 5 7 12 12 11 11 11 11 11 10 10 11 10 10 10 9 9 9 8 8 7 7 6 6 5 4 3 3 2 3 3 3 4 5 5 6 7 7 7 7 7 7 7 7 7 7 7 8 8
3 3 2 3 3 2 2 3 3 2 1 1 1 0 1 1 3 3 3 2 1 1 1 2 1 1 1 4 3 4 6 9 5 6 7 6 6 6 12 11 11 11 11 11 11 11 11 11 10 11 10 10 10 9 9 8 8 7 6 5 4 3 2 2 1 2 2 3 3 5 6 6 7 7 7 6 7 7 7 7 7 7 7 8 7
4 5 4 4 4 3 3 2 3 3 2 2 1 2 1 1 2 1 2 0 1 1 1 1 2 0 1 2 3 0 3 5 8 8 9 7 6 6 8 12 11 11 11 11 10 10 11 11 11 10 10 10 9 9 8 7 7 6 5 4 4 3 2 1 1 1 1 3 3 4 5 5 6 6 6 6 6 7 7 6 6 6 6 6 6
3 6 5 4 4 3 3 3 2 3 2 1 1 1 1 1 2 3 2 1 1 1 2 1 2 3 1 2 5 3 2 3 7 8 7 7 7 6 6 7 12 12 11 10 10 10 9 9 9 9 9 9 9 8 7 7 6 5 5 4 3 2 2 1 0 3 3 3 4 4 4 5 5 5 6 5 6 5 5 4 4 5 4 4 4
2 3 4 3 3 1 2 2 3 3 1 2 0 1 1 1 3 4 2 2 1 1 2 1 2 2 7 4 2 4 3 1 3 7 8 9 7 7 6 6 7 10 11 10 10 9 9 9 9 8 8 9 8 8 7 6 6 5 4 4 2 2 2 2 2 2 3 4 4 4 3 4 4 4 4 5 3 4 2 2 3 3 3 3 3
3 4 4 3 2 2 3 2 3 4 4 2 2 2 2 2 2 1 3 1 1 2 1 3 2 2 2 4 2 3 2 4 4 6 7 7 7 7 7 6 6 5 6 11 10 11 10 9 9 9 8 8 7 7 6 6 5 5 4 4 3 3 3 3 3 3 3 3 3 3 3 3 3 3 3 3 2 2 1 1 2 2 2 3 3
6 4 4 4 3 2 3 3 3 2 2 2 2 1 0 1 2 1 2 1 2 1 2 4 2 1 3 3 4 6 2 2 3 3 6 7 6 6 7 7 6 6 6 5 9 11 11 10 10 9 9 8 7 7 7 6 6 6 6 6 5 5 4 5 4 4 4 4 3 2 3 3 3 3 2 2 1 1 0 0 1 1 1 2 3
5 5 5 3 3 3 2 3 3 2 2 1 1 1 1 1 0 1 2 1 1 1 3 3 2 3 3 2 3 2 2 4 5 3 5 2 6 7 6 6 7 5 6 5 5 7 11 10 10 10 9 9 8 8 8 8 8 8 7 6 6 6 6 5 5 5 4 4 3 3 3 3 2 2 1 1 1 2 1 1 1 0 1 1 2
4 4 3 4 3 3 3 4 3 3 3 2 0 2 1 1 2 1 0 2 1 2 1 2 3 3 3 1 2 2 3 2 1 2 7 4 2 8 7 5 6 8 6 6 5 5 10 11 10 10 9 8 9 9 8 9 9 8 7 7 6 7 7 6 6 5 5 5 4 4 4 2 1 0 2 1 2 2 0 1 1 2 2 1 2
3 5 3 4 4 2 3 5 3 3 2 1 2 1 1 2 1 1 2 2 1 2 4 5 4 3 3 4 2 1 2 1 2 3 2 3 3 3 3 7 8 7 6 5 6 5 5 9 12 10 10 10 10 10 10 9 9 9 9 8 7 7 7 7 6 6 5 5 5 5 3 2 1 1 2 2 3 3 2 2 3 3 3 3 3
3 3 4 3 3 3 3 4 3 3 3 2 1 1 1 1 0 1 1 2 3 3 3 2 1 1 3 3 3 1 2 2 1 4 4 3 3 5 5 3 3 5 5 4 5 6 5 5 5 5 6 12 11 12 11 11 10 10 9 9 9 8 7 7 7 7 6 5 5 5 5 4 4 3 3 3 4 4 4 4 4 4 4 4 3
4 3 4 5 3 2 2 3 3 4 4 4 3 3 4 3 3 2 2 3 3 2 3 3 5 1 3 1 4 2 2 2 3 2 3 3 3 3 4 5 4 4 8 7 5 6 6 6 6 6 6 10 14 12 13 12 11 11 11 10 10 9 8 7 7 6 6 6 6 6 5 4 5 5 4 4 4 5 5 5 5 5 5 4 3
5 3 4 6 4 2 3 2 3 3 3 3 4 4 2 2 2 1 2 1 1 4 3 1 1 1 2 1 2 3 2 2 3 3 2 3 3 3 4 3 5 4 4 5 8 9 8 8 7 7 6 6 9 13 13 13 12 11 12 11 10 10 9 8 7 6 6 6 6 6 6 6 6 6 5 5 5 5 6 6 7 6 5 5 4
4 4 3 4 5 4 5 4 3 2 3 3 3 2 3 2 1 1 2 2 1 1 2 0 1 3 3 2 3 3 3 4 4 5 6 4 3 1 2 4 4 4 4 3 2 5 7 7 8 7 5 5 6 6 7 9 10 13 13 12 11 10 10 9 8 7 7 7 7 7 6 7 7 6 6 6 7 7 7 8 8 8 7 7 6
4 4 4 2 3 4 2 4 3 2 3 3 4 3 3 3 2 2 1 1 1 0 0 1 2 2 2 1 2 2 1 2 5 5 8 7 5 5 4 5 4 3 4 6 5 3 5 4 4 7 6 6 6 6 7 7 9 14 14 12 11 12 11 10 9 8 8 8 8 7 7 9 9 8 8 9 8 9 9 9 10 9 9 8 8
6 5 4 4 4 3 3 2 5 3 4 2 2 3 4 3 2 2 2 2 2 2 0 1 3 2 2 2 4 4 2 3 3 4 3 8 9 8 5 6 4 5 3 3 5 3 5 5 4 4 4 5 7 7 6 6 11 14 15 14 13 11 12 12 10 10 10 9 9 9 10 11 11 10 10 10 10 11 11 10 10 11 10 10 10
6 5 4 4 5 5 5 3 4 4 3 3 3 3 2 3 3 3 2 1 1 1 2 3 1 2 2 2 1 1 0 2 4 4 3 3 5 9 3 4 7 6 5 2 5 5 6 7 5 5 4 4 1 3 4 8 7 6 10 13 14 12 12 12 12 11 11 11 10 10 10 13 12 11 10 10 10 11 11 11 12 12 12 11 11
5 6 5 5 4 3 4 5 4 3 4 4 5 3 4 3 4 4 4 3 1 2 2 1 1 1 1 1 1 1 2 3 1 2 1 3 3 8 7 6 8 6 6 4 6 4 4 8 8 5 6 4 5 4 3 6 6 6 5 8 14 13 13 13 13 12 12 12 11 11 11 13 13 12 12 12 12 12 13 13 12 13 13 12 12
7 5 5 4 4 4 3 2 5 5 4 3 3 4 3 3 2 2 2 1 1 2 4 2 3 2 2 4 3 3 1 2 1 1 1 2 2 1 8 9 10 9 6 8 8 6 6 7 7 8 6 6 5 4 3 4 9 8 12 12 14 14 13 13 14 13 12 12 12 12 10 13 13 13 12 12 12 13 13 14 13 14 14 13 13
5 5 5 5 4 4 3 3 2 3 4 3 3 3 3 2 4 2 4 3 0 1 1 2 1 2 1 3 2 2 3 6 5 1 2 1 2 5 3 3 0 5 10 6 8 8 9 6 8 6 7 5 6 6 5 5 5 6 5 11 14 15 14 14 14 14 13 13 13 12 12 13 14 13 12 13 13 13 14 14 15 15 15 15 15
4 5 5 4 4 3 4 4 3 2 3 4 4 5 5 3 2 3 2 2 2 0 1 1 0 2 1 2 3 1 2 3 2 3 1 0 2 1 1 2 1 1 3 1 1 8 5 5 5 4 8 7 6 5 4 4 6 7 7 13 14 15 14 14 14 15 14 14 14 14 14 14 14 15 14 14 15 14 14 15 16 16 16 16 16
5 4 6 5 5 5 4 5 4 4 3 3 4 3 7 5 4 3 2 2 1 2 2 2 1 2 4 2 0 3 2 2 2 3 1 1 2 2 2 2 2 1 5 3 5 4 4 4 3 3 5 7 7 6 5 5 5 6 9 15 15 14 15 14 14 15 15 15 15 15 15 15 15 15 15 15 15 16 16 16 17 17 18 18 18
6 5 5 6 5 5 6 6 5 4 3 3 3 3 4 4 4 5 3 2 3 3 2 2 3 4 5 3 3 2 3 2 2 3 3 0 1 5 5 5 2 1 0 4 1 1 2 2 2 3 2 5 7 7 6 5 6 7 12 16 16 15 15 15 14 15 15 14 16 16 16 16 16 16 16 16 17 17 18 18 18 19 19 20 20
6 6 6 8 5 5 5 5 5 4 4 3 3 2 3 4 4 4 3 3 2 1 2 1 2 0 1 2 3 4 5 3 2 1 1 2 3 3 3 3 3 1 2 2 4 2 3 6 6 5 5 4 6 6 7 7 6 10 10 15 16 16 16 15 14 15 16 16 15 15 16 16 17 17 17 18 18 19 19 20 20 20 20 21 20
6 7 8 8 6 7 6 5 5 5 4 4 3 3 2 2 3 4 3 4 4 3 3 3 2 2 2 1 3 4 3 5 3 4 3 2 1 2 5 5 2 3 1 1 1 1 1 2 3 4 5 3 3 4 5 6 5 10 11 12 17 16 16 16 16 17 17 17 17 17 16 16 16 16 16 17 19 20 20 21 21 21 21 21 21
6 6 7 9 7 7 7 6 4 4 4 3 3 2 2 2 1 2 3 3 2 3 3 3 2 4 4 4 5 3 3 4 4 1 5 4 4 5 4 2 2 4 1 2 2 2 4 5 4 2 3 2 3 5 5 5 3 12 14 10 14 16 16 16 16 17 17 17 18 18 18 18 17 18 18 18 19 19 20 21 22 23 23 23 22
7 5 5 6 8 7 8 7 5 4 5 4 4 3 3 2 2 2 2 1 3 2 3 4 4 3 3 4 3 3 4 5 1 5 4 4 6 2 2 1 1 3 4 1 2 4 3 0 4 5 5 4 3 2 5 4 5 12 13 8 7 15 15 17 17 17 17 18 18 19 19 19 18 18 20 20 20 21 21 22 22 22 23 23 22
7 6 8 5 7 7 8 7 6 6 5 5 5 4 4 4 4 3 2 3 2 3 3 3 4 4 4 2 0 4 3 2 3 3 0 2 3 3 2 3 2 2 2 4 3 2 5 5 4 4 5 5 4 3 4 4 3 9 13 7 6 8 16 17 18 18 18 18 18 19 19 20 20 21 21 22 23 22 22 23 23 23 23 23 22
8 8 7 7 5 8 8 8 8 7 6 6 6 5 4 5 5 4 4 4 3 3 2 3 3 5 3 5 5 4 3 4 3 4 3 4 4 4 2 1 2 1 1 2 3 3 4 7 1 3 5 4 5 4 5 5 4 6 6 7 7 5 12 18 18 17 17 18 18 19 19 20 21 22 23 23 24 24 24 24 24 24 24 23 22
8 9 7 9 6 7 7 8 8 7 7 7 7 6 5 5 5 5 4 4 3 3 3 3 3 3 4 2 4 4 3 3 2 3 1 2 1 0 2 1 2 2 2 1 3 2 4 5 4 1 1 6 3 4 3 5 8 8 6 7 7 7 10 15 16 17 17 18 18 19 20 21 22 23 23 24 24 24 25 25 24 24 23 23 22
7 6 9 9 9 7 7 8 7 9 8 7 7 7 6 5 5 5 5 5 4 3 3 3 3 3 3 3 2 2 2 2 2 2 2 4 2 2 2 2 3 3 2 2 2 3 2 4 4 2 2 3 4 5 5 5 8 10 7 6 7 9 11 10 15 17 18 19 20 20 21 22 22 23 23 23 23 23 23 23 23 23 23 22 22
9 8 7 9 10 9 9 9 9 9 9 8 8 8 7 6 6 6 6 6 5 5 4 4 5 4 4 4 3 2 2 2 2 3 3 2 2 4 4 2 2 2 2 2 4 7 3 4 6 7 6 3 7 5 4 4 6 12 6 6 5 8 7 6 11 16 18 19 19 20 21 21 22 22 22 22 22 22 22 22 22 23 22 22 21
9 10 8 9 10 10 11 9 10 9 9 9 8 7 7 7 6 6 5 7 7 6 5 5 5 4 4 4 3 3 3 3 3 3 3 3 4 3 3 3 3 3 3 3 5 6 5 4 5 6 6 6 5 3 3 3 3 4 7 6 6 6 6 7 7 12 16 18 19 20 21 20 21 21 21 21 22 22 23 23 23 23 23 22 22
10 11 11 9 9 11 11 10 9 9 9 9 10 7 8 8 8 7 7 4 7 7 5 5 6 5 3 3 3 4 3 5 4 5 4 4 4 5 5 5 5 4 5 5 5 6 8 3 5 4 5 5 5 4 5 5 5 4 4 5 6 7 7 7 7 7 13 16 18 19 20 20 20 21 21 22 22 22 22 23 23 23 22 22 22
11 10 11 11 9 10 10 9 9 8 9 10 9 8 8 9 9 8 7 7 6 6 7 7 7 6 5 4 5 4 5 5 5 5 5 4 4 4 5 6 6 5 4 5 5 6 7 7 4 5 4 4 5 5 5 5 5 5 5 6 6 5 5 5 5 6 11 14 16 18 19 20 21 21 21 21 22 22 22 22 22 22 22 22 21
13 11 11 12 10 10 10 10 10 9 8 10 10 9 9 10 9 9 7 7 8 7 7 7 8 7 7 6 6 6 6 5 5 5 5 5 4 4 4 3 3 5 5 4 6 5 5 7 5 5 5 5 6 6 5 5 5 5 4 4 4 5 6 6 6 7 9 12 14 15 18 20 21 20 20 20 20 20 20 20 20 21 21 21 21
13 12 10 11 11 11 11 11 10 11 10 10 10 10 9 9 10 9 9 7 7 8 8 7 7 7 7 7 7 7 5 5 5 5 5 5 5 4 4 4 5 4 3 3 4 4 5 7 6 4 5 5 5 6 4 5 5 5 4 5 6 7 6 6 6 8 11 17 17 18 17 18 18 19 19 19 19 20 19 19 19 19 21 21 21
12 13 12 11 11 12 12 11 10 10 9 9 10 10 11 10 9 10 9 8 8 7 8 8 8 7 8 8 8 7 7 7 6 5 5 7 6 6 5 5 4 4 5 5 5 6 6 7 6 6 5 6 6 5 4 5 5 5 4 5 4 5 5 6 6 7 7 7 6 6 8 11 14 18 20 19 19 20 19 18 19 20 21 21 21
14 15 15 13 11 12 12 12 12 10 10 10 10 10 10 9 10 10 10 9 9 8 7 8 9 9 9 8 7 8 7 7 7 7 6 6 6 6 6 6 5 4 4 4 5 6 6 6 6 6 7 6 6 8 5 5 6 5 5 5 5 5 6 6 6 5 6 8 9 11 12 14 17 14 13 14 15 16 16 17 19 20 20 21 22
16 15 16 15 12 11 12 12 11 10 11 11 10 10 10 10 10 10 10 9 10 9 8 9 9 10 10 10 10 9 9 7 7 6 6 6 6 6 6 5 5 5 5 5 5 5 6 6 7 7 6 6 5 5 4 4 5 4 5 6 7 4 4 3 4 6 4 5 7 8 10 11 9 10 12 12 13 14 15 15 17 19 20 21 21
14 14 14 15 14 13 12 12 11 11 11 12 10 11 11 11 9 10 11 10 9 9 9 10 10 9 9 10 10 11 9 13 13 11 9 8 5 6 6 5 5 6 5 6 6 6 6 6 7 5 6 6 6 6 6 6 6 8 5 5 6 5 3 2 2 3 6 8 7 7 7 6 8 8 9 9 9 11 12 13 11 16 17 17 18
12 11 11 12 15 14 13 13 12 11 10 10 12 17 15 11 10 10 9 10 9 8 8 9 9 10 11 11 10 14 15 17 17 16 15 14 12 9 5 5 7 6 6 6 6 6 6 7 7 6 6 7 6 5 5 4 3 3 4 3 2 3 3 4 4 4 5 7 6 5 6 7 9 11 9 10 8 8 7 8 8 9 8 12 15
12 11 11 11 14 14 14 14 14 13 12 12 16 17 17 17 12 10 9 9 10 9 9 8 9 9 9 10 9 9 8 9 13 17 17 16 16 15 14 10 6 4 5 7 6 6 7 7 7 7 7 7 7 6 5 4 4 3 2 2 4 4 5 6 8 4 2 4 5 6 7 8 8 10 10 8 9 8 8 7 11 14 15 13 9
12 11 12 12 11 13 13 15 15 14 12 13 18 18 18 18 15 11 10 9 9 10 10 9 9 9 9 9 9 9 7 7 6 10 14 16 16 16 16 15 14 12 8 6 5 5 5 6 7 8 7 7 5 4 4 4 3 4 4 4 4 5 5 5 5 6 3 7 9 10 10 7 6 7 9 8 8 8 7 11 13 14 15 16 16
12 11 11 12 11 11 13 14 14 14 13 15 17 20 19 19 18 13 10 9 9 10 10 10 10 9 8 8 8 6 7 12 11 8 9 11 15 17 17 16 15 14 15 13 10 9 6 7 8 9 9 6 6 4 3 3 3 5 5 5 5 4 4 5 5 5 6 6 9 9 9 6 4 6 8 8 6 5 9 11 14 14 16 17 16
12 13 12 12 10 10 10 12 12 12 13 13 19 20 20 20 19 16 10 10 10 9 9 10 10 10 9 8 8 8 7 5 5 8 8 9 9 9 9 8 8 13 13 14 15 15 12 10 10 11 11 6 8 4 3 4 6 7 6 7 5 4 4 6 5 7 7 7 8 8 8 6 5 5 7 5 6 7 7 10 15 17 13 11 12
12 12 13 12 11 11 11 10 11 13 13 15 19 20 21 21 21 15 12 10 8 8 8 8 9 10 9 9 9 9 7 7 7 6 7 8 8 8 9 10 10 10 9 10 9 9 10 8 10 11 12 10 10 10 9 7 8 9 8 5 2 3 5 6 7 6 7 7 8 4 4 3 3 3 3 5 7 9 8 11 17 12 17 19 18
12 11 11 11 12 12 12 12 11 12 12 16 19 20 22 21 21 10 11 11 9 7 6 7 8 8 9 9 8 9 8 8 10 13 11 7 7 8 8 8 8 8 9 10 13 12 11 9 10 11 11 12 12 11 9 7 5 2 2 2 2 4 6 6 7 6 6 5 2 6 6 5 3 5 4 5 7 8 9 8 10 16 18 17 17
13 13 13 14 10 12 13 12 12 10 10 13 19 21 21 22 15 8 13 11 11 10 8 5 4 4 6 8 8 8 9 9 11 12 13 11 7 8 8 8 7 7 8 8 15 18 17 17 16 16 16 15 17 12 6 1 3 1 1 4 7 6 5 6 6 6 6 4 5 6 4 6 5 6 8 4 4 8 8 6 6 13 15 13 15
15 15 14 13 13 13 13 13 13 11 10 11 18 19 21 20 18 12 12 11 11 10 9 8 7 6 6 10 9 8 9 9 11 13 13 11 8 9 8 8 8 9 8 7 4 7 16 17 17 17 17 14 5 1 3 4 4 4 4 9 8 4 5 5 5 5 4 3 4 6 3 4 6 5 8 7 4 3 5 4 7 8 11 13 15
13 11 11 12 13 12 14 15 15 13 13 10 18 19 20 20 18 12 11 11 10 9 9 9 9 9 9 10 13 12 10 11 12 11 14 12 9 9 9 8 9 10 8 4 6 7 3 4 6 8 8 9 7 5 7 13 13 11 8 9 6 5 5 5 5 5 4 0 4 5 4 3 6 4 5 7 7 4 1 5 6 6 8 7 8
Wind_Direction
167 157 156 113 133 113 132 176 133 133 178 216 329 96 157 185 154 126 180 297 70 148 333 287 301 64 115 99 97 131 131 132 137 137 135 138 146 153 151 151 148 149 150 148 150 149 149 146 146 143 143 145 144 146 147 146 147 145 148 145 142 126 124 97 95 73 54 45 29 22 22 13 14 10 3 8 12 7 15 12 16 20 31 33 36
153 101 75 130 137 149 145 201 151 168 108 31 142 308 330 123 130 172 163 176 174 72 239 266 114 69 11 113 126 108 107 141 150 143 137 148 145 156 160 156 155 157 158 159 157 157 154 152 150 149 148 150 151 152 152 155 152 156 152 155 147 141 125 117 59 69 35 27 11 8 10 6 5 360 5 5 11 10 17 13 21 27 29 33 35
127 123 159 165 156 154 194 168 143 144 134 164 178 159 198 356 94 122 86 358 190 119 271 252 125 225 223 87 69 70 140 140 148 146 150 142 141 154 165 165 166 166 164 164 163 163 161 158 157 156 157 157 158 156 156 155 159 159 161 163 160 156 141 168 122 341 354 2 354 1 3 357 355 3 358 11 7 13 17 20 29 27 34 44 44
132 154 172 160 153 156 147 139 128 80 71 50 342 62 301 229 173 80 81 30 6 279 229 289 174 178 20 186 164 174 141 143 171 145 136 137 145 157 161 170 174 174 173 170 170 167 163 163 163 162 163 163 162 161 161 164 168 170 170 176 178 171 205 198 269 331 341 347 341 358 353 344 352 5 359 8 10 8 22 26 30 34 43 53 56
142 147 127 105 110 106 107 87 99 88 94 212 213 9 132 211 124 121 203 182 181 234 262 242 191 196 174 159 206 156 162 126 121 127 143 146 153 157 163 167 174 180 179 180 182 180 177 174 170 171 169 170 171 170 168 171 177 180 192 192 200 203 222 243 277 289 312 322 326 330 323 345 3 353 359 360 10 12 25 25 32 39 60 53 57
210 150 120 126 135 145 127 118 97 156 154 206 87 67 342 353 29 135 114 68 11 337 293 330 245 255 205 114 118 52 113 172 155 150 150 151 157 158 158 163 166 174 182 187 187 186 186 183 182 180 178 179 175 181 178 184 197 182 201 212 225 232 246 258 266 273 286 282 292 319 340 333 337 342 347 6 17 28 34 20 21 41 34 60 79
172 114 95 142 165 143 130 128 132 111 111 81 124 127 288 29 342 312 117 141 212 197 265 225 194 113 48 118 145 148 171 178 125 143 138 150 153 155 156 162 167 177 175 174 194 193 191 188 188 185 187 191 183 181 194 197 206 208 216 224 228 236 245 250 256 260 251 271 284 299 300 316 312 332 347 7 64 275 330 26 359 313 42 76 80
121 123 153 149 109 139 135 125 114 90 97 94 97 130 66 6 302 181 25 8 350 188 248 295 230 142 128 130 111 110 283 97 90 274 110 127 158 150 159 161 169 171 169 172 174 193 196 194 194 194 191 197 194 197 204 214 217 221 227 227 233 242 246 244 245 249 260 266 280 272 274 288 294 309 322 293 190 162 220 291 265 8 110 100 68
133 131 104 114 110 149 165 139 136 153 155 149 103 139 192 176 256 332 358 114 285 306 295 265 281 151 144 147 108 153 146 115 164 139 132 199 173 146 161 160 166 174 171 168 173 172 192 199 199 199 200 203 203 205 209 216 218 226 227 233 235 241 244 247 249 253 257 256 257 265 259 266 19 280 272 227 208 204 222 176 225 190 176 150 129
157 125 132 134 133 137 146 139 147 146 121 126 138 76 182 179 171 202 108 107 10 282 266 201 186 163 154 128 112 167 74 124 125 97 89 123 151 106 165 153 169 172 177 165 172 164 177 196 200 202 205 206 207 211 213 216 222 224 226 229 232 234 235 239 240 247 247 250 252 260 258 251 253 242 221 255 219 220 257 237 213 207 191 177 173
145 136 126 117 121 156 157 142 146 133 118 117 106 96 2 56 158 53 26 176 176 234 275 323 303 99 134 120 105 345 152 132 158 159 141 156 155 149 160 133 131 141 169 163 161 163 170 170 188 198 205 208 209 212 215 217 217 225 227 224 230 231 237 238 234 236 236 239 243 244 246 239 219 238 241 239 231 226 252 244 220 209 207 200 194
158 166 126 114 152 147 67 164 142 131 128 165 159 176 185 186 167 184 210 192 206 95 296 37 325 8 38 124 128 160 270 128 195 161 156 171 152 183 137 167 144 149 159 169 178 170 166 166 182 193 196 199 209 212 213 218 220 221 225 228 227 228 232 235 241 240 238 232 236 238 231 219 224 225 237 244 236 241 251 233 224 220 211 208 211
151 173 158 129 140 122 136 241 124 130 143 175 167 166 171 111 102 311 343 10 88 128 281 77 145 106 171 171 139 175 152 203 220 165 156 154 149 190 154 138 155 178 144 160 173 170 166 173 182 188 186 172 202 210 214 216 217 218 221 223 225 226 227 233 238 235 236 232 231 236 222 222 238 243 241 240 234 241 239 234 229 225 221 214 211
169 151 163 150 139 165 172 134 125 150 167 167 145 167 168 152 123 48 295 12 335 35 100 62 248 196 176 178 149 196 160 188 205 180 168 167 162 133 121 161 139 158 138 142 239 146 161 180 180 166 173 172 182 196 210 215 217 215 217 221 223 226 227 228 229 226 228 230 235 234 219 211 230 234 229 233 227 227 232 228 225 225 220 218 219
157 165 130 194 117 110 177 136 145 203 154 158 172 178 132 158 184 148 68 260 267 126 209 211 273 68 30 126 143 146 299 284 254 191 174 166 153 182 172 133 179 107 146 182 196 173 146 155 113 147 171 174 186 190 199 205 206 210 213 215 221 222 222 223 225 224 226 228 231 236 212 210 219 232 229 230 223 222 223 227 227 225 224 225 221
165 173 171 148 149 177 139 179 150 171 156 152 175 160 166 163 193 194 160 243 173 105 190 314 276 88 242 226 171 175 150 241 238 214 199 158 175 163 196 152 176 144 221 244 157 157 134 128 156 153 166 185 178 187 199 187 203 204 205 209 214 221 220 219 223 228 228 226 222 222 214 209 216 229 226 227 223 221 222 226 226 226 227 226 227
165 175 168 166 175 179 166 183 168 171 144 165 158 182 165 189 182 168 202 258 358 86 196 195 293 355 300 342 37 32 352 187 187 317 290 160 207 141 160 215 150 183 179 185 130 156 157 146 171 174 175 154 224 184 184 179 190 187 198 205 209 210 218 221 220 221 227 228 229 225 212 205 213 221 234 228 225 226 226 228 230 229 228 227 229
164 175 179 167 172 190 182 170 183 133 189 192 155 174 198 197 172 197 197 234 152 272 120 335 188 109 329 184 160 167 222 293 317 282 282 321 262 144 164 206 148 185 182 175 186 181 141 168 171 179 167 168 189 177 200 162 164 178 176 203 206 206 211 215 218 219 221 229 235 236 223 205 210 221 229 231 230 228 229 228 230 229 228 230 230
177 177 173 174 167 178 196 202 165 186 175 151 146 174 199 214 181 168 181 94 252 81 302 117 28 338 226 223 195 279 13 349 120 163 4 303 319 240 172 204 170 168 189 207 183 176 186 164 180 173 167 183 181 186 197 187 170 177 186 193 195 199 206 209 214 219 223 225 232 239 236 208 213 221 228 231 232 232 229 229 228 229 230 232 233
175 158 176 172 171 172 184 207 219 177 170 181 173 193 182 242 195 183 151 187 143 118 298 32 77 244 194 301 193 88 6 314 28 334 153 204 281 298 175 76 177 174 183 233 163 182 188 149 183 165 171 192 170 179 195 203 161 149 148 167 183 194 205 208 212 217 224 227 231 233 235 227 223 222 226 229 231 233 230 229 229 230 231 233 234
189 164 169 176 168 177 185 203 211 216 174 189 212 177 189 196 181 161 176 166 180 110 85 169 137 316 21 302 359 140 187 239 127 296 236 25 334 282 64 224 159 79 61 29 287 150 157 161 182 172 176 176 175 180 189 209 157 166 168 174 183 193 199 203 208 214 219 226 230 232 234 234 232 234 235 236 237 235 233 231 230 231 232 232 234
182 184 159 180 177 185 189 199 206 210 194 221 209 197 179 171 169 202 190 195 145 164 186 112 328 30 303 143 337 343 357 313 157 205 267 69 218 279 229 206 166 29 164 55 15 53 109 158 194 225 164 161 174 178 191 191 179 169 178 181 187 191 197 201 207 214 219 224 229 232 234 236 237 239 237 235 235 237 236 234 233 232 232 233 233
177 180 177 180 189 186 196 194 206 199 202 241 244 215 174 180 184 178 195 199 165 222 187 172 154 186 237 123 199 203 175 235 308 9 349 312 10 320 349 20 335 176 50 92 63 151 163 178 229 267 149 185 171 176 189 190 181 202 178 183 189 195 199 203 207 213 218 223 226 230 234 236 236 237 238 237 235 235 236 235 233 233 233 233 234
173 166 188 192 180 187 204 200 187 199 198 215 245 227 249 177 181 164 162 189 193 220 294 99 219 11 263 288 250 232 148 238 212 158 119 346 2 334 309 303 308 187 104 164 178 214 217 197 199 205 191 182 173 167 178 187 192 175 167 184 190 196 201 204 206 213 217 220 225 228 231 234 235 235 235 236 235 235 235 235 233 233 233 234 234
179 173 180 197 171 181 195 212 181 192 200 187 223 255 287 332 146 163 173 180 187 204 198 242 187 211 255 216 244 247 178 196 228 181 168 145 91 290 294 313 344 321 267 41 16 272 305 276 210 195 189 152 149 149 163 182 180 179 176 186 192 197 201 207 210 215 218 221 224 227 229 232 235 236 236 236 236 236 236 236 235 235 234 235 234
197 191 184 186 182 177 184 199 198 182 193 187 197 226 208 266 288 172 198 179 185 194 207 239 182 219 193 215 226 247 263 192 180 290 157 169 187 213 229 270 300 296 293 164 197 236 246 228 241 124 107 148 161 165 189 197 210 187 187 187 197 198 204 208 213 217 219 222 226 228 230 231 233 235 237 238 238 238 238 238 238 237 237 235 234
198 193 205 178 177 172 179 190 195 193 176 186 200 199 191 192 281 262 248 157 181 226 212 227 232 227 198 254 301 304 291 333 290 190 224 183 186 221 125 91 306 321 320 243 191 206 270 273 179 163 172 166 175 165 189 194 217 190 199 189 190 204 207 212 216 219 221 224 227 229 231 232 233 233 236 237 238 239 239 238 238 238 237 237 236
189 188 193 205 175 173 171 185 189 196 180 184 195 196 187 200 202 210 226 228 209 196 221 259 253 237 227 204 330 273 277 247 257 270 109 345 41 87 111 115 141 277 316 320 332 288 230 218 235 146 162 170 195 207 235 205 237 184 195 200 199 202 212 215 219 221 223 225 228 230 232 234 234 236 237 238 238 238 238 238 237 237 237 237 237
179 191 186 197 188 177 174 186 190 191 188 185 191 200 191 200 199 201 208 236 193 210 214 213 253 258 221 211 197 226 274 306 331 330 47 56 31 29 79 149 138 112 319 314 303 291 325 336 346 175 166 171 183 217 206 221 218 182 194 207 214 209 210 217 221 225 226 227 230 232 234 235 236 237 238 238 238 238 237 238 238 238 238 238 239
189 189 186 183 196 183 174 184 183 190 194 193 190 198 198 202 206 196 205 215 223 212 202 224 228 233 263 254 197 204 209 238 246 269 300 98 82 357 287 209 140 159 198 248 290 306 304 301 292 191 221 188 186 214 229 205 213 195 202 207 215 224 217 211 223 229 231 232 233 235 235 236 237 238 239 240 240 240 240 241 241 241 242 242 242
199 190 176 180 187 189 182 186 180 183 190 196 185 194 196 206 211 201 204 197 213 225 210 204 232 246 246 248 248 206 219 237 273 247 211 143 169 229 248 210 172 179 202 220 270 277 252 275 291 358 195 216 212 212 227 212 210 204 210 211 219 223 230 219 221 227 230 232 233 235 235 236 237 239 240 242 244 245 246 247 248 248 248 247 247
197 199 181 182 180 191 192 195 194 186 189 199 191 188 193 201 212 212 200 192 197 209 224 215 224 214 215 228 225 225 237 266 244 253 270 171 184 194 217 235 216 200 183 220 234 265 291 301 310 311 307 240 226 247 242 232 207 203 217 227 226 230 234 238 221 224 232 235 238 239 240 241 242 243 245 246 248 249 251 252 252 253 253 253 251
191 194 196 183 180 188 196 199 201 190 187 192 194 186 189 195 211 213 223 188 190 197 205 236 239 216 208 212 217 204 206 221 232 250 247 220 200 216 219 211 208 197 194 213 243 265 275 259 269 281 296 313 297 245 266 258 256 213 219 227 226 227 232 238 245 231 229 235 239 241 243 245 247 248 249 249 250 251 252 253 253 254 254 254 254
189 192 194 193 186 185 196 196 202 193 187 184 190 189 185 197 203 210 224 217 186 195 201 210 227 245 222 207 227 227 198 212 230 230 230 248 214 200 196 212 221 219 194 200 222 242 268 269 274 266 264 246 262 262 262 266 263 249 226 228 232 234 239 247 246 254 245 237 240 244 246 247 249 249 249 250 251 252 253 254 255 256 255 255 254
189 193 187 197 192 187 194 194 197 201 186 186 188 191 189 192 198 211 207 211 208 197 199 207 210 216 227 222 222 221 224 217 211 232 249 245 252 245 209 198 209 216 209 199 207 237 256 264 255 276 270 265 246 266 256 249 246 235 244 251 253 251 242 233 240 250 251 246 240 242 245 248 250 250 250 251 252 252 253 254 255 256 256 255 254
191 191 187 191 191 190 192 194 191 199 191 187 191 195 192 190 196 206 213 202 205 210 210 204 211 213 211 212 223 222 216 220 216 215 221 240 255 252 268 261 205 209 209 212 208 221 236 261 251 251 271 280 279 282 293 285 278 271 253 259 256 257 262 262 267 271 274 274 262 247 245 248 249 251 252 254 255 255 256 256 256 256 256 255 254
191 190 190 186 189 189 192 196 193 193 195 189 190 197 198 193 194 201 210 214 203 204 210 214 212 212 216 218 215 219 225 220 215 215 221 234 228 238 242 234 237 239 239 225 239 233 245 252 264 252 257 262 264 266 254 267 265 262 269 269 274 274 273 271 273 277 273 262 259 259 255 251 251 253 255 256 256 256 256 256 257 258 258 256 254
191 189 190 189 189 190 193 195 198 193 193 192 190 196 201 199 193 200 203 209 215 208 206 210 216 218 220 217 220 213 215 219 223 220 218 223 225 227 235 242 232 220 220 228 227 241 250 257 264 277 266 272 278 259 247 236 247 258 254 248 248 252 254 255 247 261 288 301 306 283 263 256 251 248 251 251 252 253 256 257 258 257 256 258 257
197 193 191 193 191 191 192 194 198 194 193 195 192 195 202 201 195 197 204 203 209 214 215 215 217 217 222 223 218 218 218 214 214 218 218 219 225 231 228 226 233 239 240 231 229 237 239 252 256 253 264 256 252 270 252 231 235 229 245 262 257 244 247 247 261 257 275 282 281 283 281 278 279 278 265 260 258 259 259 257 257 259 257 256 257
199 198 193 192 191 192 191 195 196 195 193 195 195 196 201 203 196 194 201 205 206 210 214 215 220 223 217 220 225 220 219 218 218 219 216 222 212 223 226 230 228 226 233 239 247 243 245 250 250 257 253 262 262 262 276 273 268 262 240 246 259 250 235 236 253 274 279 288 291 293 290 287 281 274 278 275 273 267 257 256 256 254 255 256 257
199 203 198 190 192 194 192 193 198 198 196 197 198 196 199 204 204 196 195 204 208 207 210 216 217 222 227 223 218 223 210 210 211 213 221 222 224 220 221 219 224 225 226 231 238 245 255 259 267 266 269 268 265 271 274 262 252 251 243 230 250 260 270 268 265 277 283 284 283 291 298 315 310 300 303 311 310 307 295 282 267 255 251 253 256
196 199 202 188 188 191 192 190 197 201 201 200 199 195 194 199 203 206 196 199 207 210 207 213 219 217 222 231 233 222 215 204 203 207 213 219 220 228 225 207 215 220 227 233 232 235 243 253 257 260 260 260 260 255 261 257 261 266 264 279 309 329 322 294 271 263 275 279 296 317 321 318 309 304 304 302 304 298 295 294 291 288 270 248 248
194 195 199 195 188 191 194 195 197 203 205 205 192 191 194 198 199 205 201 195 199 207 211 210 216 222 223 222 230 243 240 212 204 205 209 214 219 226 234 235 223 215 231 227 230 231 239 246 252 252 254 259 258 258 258 277 273 282 327 357 319 322 318 318 308 291 264 356 328 314 302 295 298 298 301 296 295 292 290 286 298 314 322 325 294
190 192 198 199 194 187 192 197 199 201 206 202 185 189 192 196 199 202 206 203 199 203 211 215 216 220 226 229 226 227 221 221 196 204 213 216 218 223 228 233 237 237 224 221 235 245 245 255 254 253 259 257 268 274 284 296 335 346 335 334 316 305 299 295 294 297 323 355 322 306 294 286 279 284 294 295 295 290 305 328 336 339 337 331 331
183 192 197 200 201 196 189 193 201 201 207 199 183 187 191 194 201 204 208 209 208 205 206 212 218 219 219 225 238 237 232 208 205 196 200 215 221 222 224 230 238 238 239 234 227 229 244 256 265 267 261 274 282 281 317 327 346 310 304 295 295 297 307 302 287 299 310 310 294 287 283 285 286 287 286 290 293 322 329 325 326 333 330 349 353
183 191 196 201 204 205 200 191 195 203 208 190 184 186 190 193 198 203 212 209 212 213 208 207 213 219 217 219 222 231 237 236 211 203 198 209 210 217 221 225 232 242 242 244 244 241 235 239 249 254 257 261 264 265 285 310 294 286 292 285 290 297 295 286 303 293 290 280 268 278 285 285 266 273 286 307 328 321 319 325 330 329 357 356 354
184 188 194 200 204 208 210 201 192 201 212 184 182 185 190 193 198 199 211 217 217 215 215 210 208 212 217 218 221 226 227 229 226 212 200 200 202 208 217 225 230 237 237 233 223 219 232 222 232 244 255 256 260 260 260 260 261 258 251 255 277 289 289 296 286 279 278 263 261 256 271 298 272 288 302 325 331 325 325 328 320 342 359 359 357
191 186 193 202 202 206 208 212 212 204 210 175 181 185 190 194 194 190 207 218 229 236 226 218 212 209 211 214 218 224 229 230 222 214 214 210 210 214 210 214 222 230 234 230 227 222 222 219 224 232 238 237 237 240 240 244 246 279 337 319 303 281 293 294 294 297 284 277 337 350 315 312 339 339 324 333 328 316 321 316 329 357 352 347 345
193 192 195 201 202 206 206 209 217 214 212 179 181 186 189 192 181 186 203 211 221 231 245 253 255 228 215 213 214 221 226 230 227 210 213 207 223 225 226 227 226 229 231 228 218 221 219 218 219 220 229 233 234 241 254 264 249 340 340 302 270 268 278 286 283 293 295 336 26 13 331 321 347 343 326 332 332 310 308 323 346 343 331 331 330
198 197 196 199 203 206 206 208 208 212 218 179 185 187 190 184 180 186 198 206 216 223 232 239 247 254 250 236 226 225 228 230 222 209 202 198 218 225 230 233 236 241 245 249 260 227 225 226 224 225 226 238 259 231 237 261 204 176 209 250 257 262 251 253 277 275 306 325 37 322 356 325 346 350 327 323 304 273 313 333 335 322 330 331 325
200 196 194 200 205 208 209 210 205 205 218 188 186 184 187 182 187 195 193 201 209 214 217 224 226 235 239 241 236 232 232 234 229 209 200 194 213 218 225 234 240 244 248 255 249 256 218 206 245 246 254 238 218 220 234 234 236 231 223 242 255 251 259 255 270 287 293 157 4 337 14 331 352 351 342 326 321 305 304 329 319 340 332 331 351